COSMOS 1477

Satellite information

Favourite Embed

Satellite Type and Status

PAYLOADIN ORBIT

Key statistics

Satellite COSMOS 1477 at a glance.

Uptime

15458

Days in orbit

Revolutions

≈ 12.5

Per day

Orbit

LEO

Low Earth Orbit

Inclination

74.0

Latest

Satellite identification and parameters

Extended collection of information and parameters for COSMOS 1477.

Object identification

Identified? True

Debris? False

Object name: COSMOS 1477

International designator: 1983-069E

Object number (NORAD): 14175

Object ID (CCSDS): 14175

Country: COMMONWEALTH OF INDEPENDENT STATES (CIS)

Current information (Y/N): Y

RCS size: MEDIUM

Orbital parameters

Period: 115.158 minutes

Inclination: 74.0244 deg

SMA: 7840.737 km

Apoapsis: 1464.113 km

Periapsis: 1461.091 km

RAAN: 259.7607 deg

Eccentricy: 0.00019268

Argument of periapsis: 176.4311 deg

Mean anomaly: 241.9574 deg

Mean motion: 12.50453124 rev/day

Mean motion (dot): -0.00000002 rev/day2

B* drag term: 0.000093688138 1/REarth

Two-line elements (TLE)

Creation date: Oct. 31, 2025, 3 a.m.

Reference frame: TEME

Reference center: EARTH

Epoch: Oct. 30, 2025, 11:01 p.m. UTC

TLE line 0: 0 COSMOS 1477

TLE line 1: 1 14175U 83069E 25303.95959385 -.00000002 00000-0 93688-4 0 9991

TLE line 2: 2 14175 74.0244 259.7607 0001927 176.4311 241.9574 12.50453124931933

Live tracking on map

Real-time ground track for satellite COSMOS 1477.

In-orbit conjunctions

A list of the most updated potential collisions computed for object COSMOS 1477.

Target Orbit TCA Probability of collision Miss distance Type
THORAD DELTA 1 DEB SSO 2025-03-27 03:29:05 0.0003027882 228.0 (m) DEBRIS

Associated space launch

Military communications satellites

COSMOS 1477 was lifted into orbit during the mission ‘Kosmos-3M | Strela-1M 265-272’, on board a Kosmos-3M space rocket.

The launch took place on July 6, 1983, 12:31 a.m. from 132/2.

For more information about the launch, click the button.

Launch to space Kosmos-3M | Strela-1M 265-272
Kosmos-3M | Strela-1M 265-272

Agency: N/A

Status: Launch Successful

Launch date: July 6, 1983, 12:31 a.m. UTC

Rocket: Kosmos-3M

Launch pad: 132/2

Location: Plesetsk Cosmodrome, Russian Federation

...

Latest news about this satellite

There are no fresh news available about this satellite. Check back as we update our databases every day.


Newsletter sign-up

Weekly statistics, charts and insights to help you stay on top of the space industry.